Weather History for Worthington, MN

Change the Weather History Date:

Saturday, January 19, 2013

  Actual Average Record
Temperature  
Mean Temperature 24 °F -  
Max Temperature 42 °F 21 °F 42 °F (1981)
Min Temperature 5 °F 6 °F -21 °F (1985)
Degree Days  
Heating Degree Days 41    
Moisture  
Dew Point 20 °F    
Average Humidity 62    
Maximum Humidity 70    
Minimum Humidity 53    
Precipitation  
Precipitation 0.00 in - - ()
Sea Level Pressure  
Sea Level Pressure 29.93 in    
Wind  
Wind Speed 16 mph (WNW)    
Max Wind Speed 32 mph    
Max Gust Speed 43 mph    
Visibility 10 miles    
Events      
Averages and records for this station are not official NWS values.
T = Trace of Precipitation, MM = Missing Value Source: NWS Daily Summary

Daily Weather History Graph

Daily Weather History Graph

Search for Another Location

Airport:

Trip Planner

Search our weather history database for the weather conditions in past years. The results will help you decide how hot, cold, wet, or windy it might be!

Date:

Astronomy

Jan. 19, 2013 Rise Set
Actual Time 7:50 AM CST 5:16 PM CST
Civil Twilight 7:18 AM CST 5:48 PM CST
Nautical Twilight 6:43 AM CST 6:23 PM CST
Astronomical Twilight 6:09 AM CST 6:57 PM CST
Moon 11:45 AM CST (1/19) 1:22 AM CST (1/19)
Length of Visible Light 10h 29m
Length of Day
9h 26m
First Quarter, 57% of the Moon is Illuminated
Jan 19
First Quarter
Jan 26
Full
Feb 3
Last Quarter
Feb 10
New
Feb 17
First Quarter

Hourly Weather History & Observations

Time (CST) Temp. Windchill Dew Point Humidity Pressure Visibility Wind Dir Wind Speed Gust Speed Precip Events Conditions
12:15 AM 37.4 °F 30.8 °F 26.6 °F 65% 29.79 in 10.0 mi SW 9.2 mph - N/A   Scattered Clouds
12:35 AM 37.4 °F 31.4 °F 24.8 °F 60% 29.77 in 10.0 mi SW 8.1 mph - N/A   Clear
12:55 AM 37.4 °F 30.8 °F 26.6 °F 65% 29.77 in 10.0 mi SW 9.2 mph - N/A   Mostly Cloudy
1:15 AM 39.2 °F 31.2 °F 24.8 °F 56% 29.76 in 10.0 mi SW 13.8 mph - N/A   Overcast
1:35 AM 39.2 °F 30.5 °F 24.8 °F 56% 29.75 in 10.0 mi SW 16.1 mph - N/A   Scattered Clouds
1:55 AM 39.2 °F 30.8 °F 24.8 °F 56% 29.75 in 10.0 mi WSW 15.0 mph - N/A   Clear
2:15 AM 39.2 °F 32.0 °F 24.8 °F 56% 29.75 in 10.0 mi WSW 11.5 mph - N/A   Mostly Cloudy
2:35 AM 37.4 °F 28.9 °F 24.8 °F 60% 29.75 in 10.0 mi SW 13.8 mph - N/A   Partly Cloudy
2:55 AM 37.4 °F 28.5 °F 24.8 °F 60% 29.75 in 10.0 mi SW 15.0 mph - N/A   Clear
3:15 AM 37.4 °F 28.5 °F 24.8 °F 60% 29.75 in 10.0 mi WSW 15.0 mph - N/A   Mostly Cloudy
3:35 AM 37.4 °F 29.3 °F 24.8 °F 60% 29.75 in 10.0 mi WSW 12.7 mph - N/A   Mostly Cloudy
3:55 AM 35.6 °F 28.6 °F 24.8 °F 65% 29.76 in 10.0 mi West 9.2 mph - N/A   Mostly Cloudy
4:15 AM 35.6 °F 29.2 °F 24.8 °F 65% 29.75 in 10.0 mi WSW 8.1 mph - N/A   Partly Cloudy
4:35 AM 35.6 °F 29.2 °F 24.8 °F 65% 29.75 in 10.0 mi WSW 8.1 mph - N/A   Clear
4:55 AM 35.6 °F 29.2 °F 24.8 °F 65% 29.75 in 10.0 mi SW 8.1 mph - N/A   Clear
5:15 AM 35.6 °F 27.5 °F 24.8 °F 65% 29.75 in 10.0 mi WSW 11.5 mph - N/A   Clear
5:35 AM 35.6 °F 27.1 °F 24.8 °F 65% 29.75 in 10.0 mi WSW 12.7 mph - N/A   Mostly Cloudy
5:55 AM 33.8 °F 27.7 °F 24.8 °F 70% 29.76 in 10.0 mi West 6.9 mph - N/A   Scattered Clouds
6:15 AM 33.8 °F 27.7 °F 24.8 °F 70% 29.77 in 10.0 mi West 6.9 mph - N/A   Clear
6:35 AM 33.8 °F 27.0 °F 24.8 °F 70% 29.77 in 10.0 mi WSW 8.1 mph - N/A   Clear
6:55 AM 33.8 °F 26.4 °F 24.8 °F 70% 29.77 in 10.0 mi WSW 9.2 mph - N/A   Clear
7:15 AM 33.8 °F 25.3 °F 24.8 °F 70% 29.77 in 10.0 mi WSW 11.5 mph - N/A   Clear
7:35 AM 33.8 °F 24.8 °F 24.8 °F 70% 29.77 in 10.0 mi WSW 12.7 mph - N/A   Clear
7:55 AM 33.8 °F 27.0 °F 24.8 °F 70% 29.78 in 10.0 mi West 8.1 mph - N/A   Clear
8:15 AM 33.8 °F 25.3 °F 24.8 °F 70% 29.79 in 10.0 mi West 11.5 mph - N/A   Clear
8:35 AM 33.8 °F 23.9 °F 24.8 °F 70% 29.80 in 10.0 mi West 15.0 mph - N/A   Clear
8:55 AM 35.6 °F 25.9 °F 24.8 °F 65% 29.82 in 10.0 mi WNW 16.1 mph - N/A   Clear
9:15 AM 35.6 °F 26.2 °F 24.8 °F 65% 29.83 in 10.0 mi WNW 15.0 mph 20.7 mph N/A   Clear
9:35 AM 35.6 °F 26.6 °F 24.8 °F 65% 29.84 in 10.0 mi West 13.8 mph - N/A   Clear
9:55 AM 35.6 °F 27.1 °F 24.8 °F 65% 29.85 in 10.0 mi West 12.7 mph - N/A   Clear
10:15 AM 37.4 °F 28.5 °F 26.6 °F 65% 29.85 in 10.0 mi WNW 15.0 mph - N/A   Clear
10:35 AM 37.4 °F 29.3 °F 26.6 °F 65% 29.86 in 10.0 mi WNW 12.7 mph - N/A   Clear
10:55 AM 39.2 °F 30.8 °F 26.6 °F 61% 29.86 in 10.0 mi WNW 15.0 mph 21.9 mph N/A   Clear
11:15 AM 41.0 °F 32.5 °F 28.4 °F 61% 29.87 in 10.0 mi NW 17.3 mph - N/A   Clear
11:35 AM 42.8 °F 34.5 °F 28.4 °F 57% 29.87 in 10.0 mi WNW 18.4 mph 24.2 mph N/A   Clear
11:55 AM 41.0 °F 31.4 °F 28.4 °F 61% 29.87 in 10.0 mi WNW 21.9 mph - N/A   Clear
12:15 PM 41.0 °F 30.9 °F 28.4 °F 61% 29.88 in 10.0 mi WNW 24.2 mph 29.9 mph N/A   Clear
12:35 PM 41.0 °F 30.7 °F 28.4 °F 61% 29.89 in 10.0 mi WNW 25.3 mph 28.8 mph N/A   Clear
12:55 PM 41.0 °F 30.9 °F 28.4 °F 61% 29.89 in 10.0 mi WNW 24.2 mph 28.8 mph N/A   Clear
1:15 PM 41.0 °F 30.5 °F 28.4 °F 61% 29.90 in 10.0 mi WNW 26.5 mph 31.1 mph N/A   Clear
1:35 PM 41.0 °F 30.2 °F 26.6 °F 57% 29.91 in 10.0 mi WNW 27.6 mph 31.1 mph N/A   Partly Cloudy
1:55 PM 39.2 °F 27.8 °F 26.6 °F 61% 29.92 in 10.0 mi WNW 27.6 mph 38.0 mph N/A   Mostly Cloudy
2:15 PM 39.2 °F 27.4 °F 26.6 °F 61% 29.92 in 10.0 mi WNW 29.9 mph 34.5 mph N/A   Scattered Clouds
2:35 PM 39.2 °F 27.8 °F 26.6 °F 61% 29.92 in 10.0 mi WNW 27.6 mph 38.0 mph N/A   Scattered Clouds
2:55 PM 39.2 °F 27.4 °F 26.6 °F 61% 29.94 in 10.0 mi WNW 29.9 mph 33.4 mph N/A   Mostly Cloudy
3:15 PM 37.4 °F 26.1 °F 26.6 °F 65% 29.96 in 10.0 mi NW 24.2 mph 35.7 mph N/A   Overcast
3:35 PM 35.6 °F 22.7 °F 21.2 °F 56% 29.98 in 10.0 mi NW 28.8 mph 38.0 mph N/A   Overcast
3:55 PM 33.8 °F 20.8 °F 21.2 °F 60% 29.99 in 10.0 mi WNW 26.5 mph 33.4 mph N/A   Mostly Cloudy
4:15 PM - - - N/A% 30.00 in 10.0 mi WNW 32.2 mph 42.6 mph N/A   Partly Cloudy
4:35 PM 30.2 °F 15.9 °F 15.8 °F 55% 30.03 in 10.0 mi NW 26.5 mph 39.1 mph N/A   Clear
4:55 PM 28.4 °F 13.0 °F 15.8 °F 59% 30.05 in 10.0 mi NW 28.8 mph 36.8 mph N/A   Clear
5:15 PM - - - N/A% 30.06 in 10.0 mi NW 29.9 mph 36.8 mph N/A   Scattered Clouds
5:35 PM 26.6 °F 11.1 °F 14.0 °F 59% 30.08 in 10.0 mi NW 26.5 mph 36.8 mph N/A   Overcast
5:55 PM - - - N/A% 30.11 in 10.0 mi NW 28.8 mph 39.1 mph N/A   Mostly Cloudy
6:15 PM - - - N/A% 30.13 in 10.0 mi NW 31.1 mph 39.1 mph N/A   Mostly Cloudy
6:35 PM - - - N/A% 30.14 in 10.0 mi NW 28.8 mph 38.0 mph N/A   Mostly Cloudy
6:55 PM 15.8 °F -3.7 °F 1.4 °F 53% 30.16 in 10.0 mi NW 27.6 mph 36.8 mph N/A   Scattered Clouds
7:15 PM - - - N/A% 30.17 in 10.0 mi NW 26.5 mph 41.4 mph N/A   Scattered Clouds
7:35 PM 14.0 °F -6.2 °F 1.4 °F 57% 30.19 in 10.0 mi NW 27.6 mph 36.8 mph N/A   Scattered Clouds
7:55 PM - - - N/A% 30.19 in 10.0 mi NW 28.8 mph 35.7 mph N/A   Partly Cloudy
8:15 PM - - - N/A% 30.20 in 10.0 mi NW 25.3 mph 34.5 mph N/A   Clear
8:35 PM 10.4 °F -10.7 °F -2.2 °F 57% 30.21 in 10.0 mi NW 26.5 mph 32.2 mph N/A   Clear
8:55 PM 10.4 °F -9.5 °F -2.2 °F 57% 30.22 in 10.0 mi NW 23.0 mph 35.7 mph N/A   Clear
9:15 PM 8.6 °F -11.4 °F -2.2 °F 62% 30.23 in 10.0 mi NNW 21.9 mph 31.1 mph N/A   Clear
9:35 PM 8.6 °F -12.3 °F -2.2 °F 62% 30.23 in 10.0 mi NNW 24.2 mph 29.9 mph N/A   Clear
9:55 PM 8.6 °F -11.4 °F -4.0 °F 57% 30.24 in 10.0 mi NW 21.9 mph 26.5 mph N/A   Clear
10:15 PM 6.8 °F -12.9 °F -5.8 °F 56% 30.24 in 10.0 mi NNW 19.6 mph 29.9 mph N/A   Clear
10:35 PM 6.8 °F -13.4 °F -5.8 °F 56% 30.25 in 10.0 mi NNW 20.7 mph 25.3 mph N/A   Clear
10:55 PM 6.8 °F -14.3 °F -5.8 °F 56% 30.25 in 10.0 mi NW 23.0 mph 26.5 mph N/A   Clear
11:15 PM 6.8 °F -10.7 °F -5.8 °F 56% 30.26 in 10.0 mi NW 15.0 mph - N/A   Clear
11:35 PM 5.0 °F -13.0 °F -5.8 °F 61% 30.28 in 10.0 mi NW 15.0 mph - N/A   Clear